This is the latest recevied weather packets stored in our database for station/object KB1WCR. If no packets are shown the sender has not sent any weather packets the latest 10 day(s).
| Time | Temp. | Humidity | Pressure | Rain* | Wind** | Luminosity | Snow |
|---|---|---|---|---|---|---|---|
| 1777311557 | 20.56° C | 43% | 1024.3 hPa | 0 mm | - | 732 W/m² | - |
| 1777311255 | 20.56° C | 43% | 1024.4 hPa | 0 mm | - | 735 W/m² | - |
| 1777310953 | 20° C | 44% | 1024.3 hPa | 0 mm | - | 742 W/m² | - |
| 1777310650 | 19.44° C | 42% | 1024.4 hPa | 0 mm | - | 745 W/m² | - |
| 1777310347 | 20° C | 44% | 1024.3 hPa | 0 mm | - | 749 W/m² | - |
| 1777310044 | 20.56° C | 42% | 1024.3 hPa | 0 mm | - | 752 W/m² | - |
| 1777309742 | 20° C | 43% | 1024.5 hPa | 0 mm | - | 754 W/m² | - |
| 1777309439 | 20° C | 43% | 1024.6 hPa | 0 mm | - | 757 W/m² | - |
| 1777309136 | 20° C | 44% | 1024.5 hPa | 0 mm | - | 759 W/m² | - |
| 1777308834 | 20° C | 45% | 1024.6 hPa | 0 mm | - | 760 W/m² | - |
| 1777308529 | 20° C | 47% | 1024.6 hPa | 0 mm | - | 762 W/m² | - |
| 1777308225 | 20° C | 44% | 1024.7 hPa | 0 mm | - | 764 W/m² | - |
| 1777307920 | 20° C | 46% | 1024.5 hPa | 0 mm | - | 765 W/m² | - |
| 1777307619 | 20° C | 47% | 1024.8 hPa | 0 mm | - | 763 W/m² | - |
| 1777307315 | 20° C | 44% | 1024.8 hPa | 0 mm | - | 763 W/m² | - |
| 1777307012 | 20.56° C | 43% | 1024.9 hPa | 0 mm | - | 762 W/m² | - |
| 1777306710 | 20° C | 44% | 1024.8 hPa | 0 mm | - | 760 W/m² | - |
| 1777306407 | 20.56° C | 51% | 1024.9 hPa | 0 mm | - | 759 W/m² | - |
| 1777306102 | 19.44° C | 47% | 1024.8 hPa | 0 mm | - | 759 W/m² | - |
| 1777305798 | 20° C | 45% | 1024.9 hPa | 0 mm | - | 754 W/m² | - |
| 1777305494 | 18.89° C | 45% | 1025 hPa | 0 mm | - | 752 W/m² | - |
| 1777305190 | 19.44° C | 46% | 1025.1 hPa | 0 mm | - | 750 W/m² | - |
| 1777304884 | 19.44° C | 50% | 1025.2 hPa | 0 mm | - | 747 W/m² | - |
| 1777304581 | 18.89° C | 49% | 1025.1 hPa | 0 mm | - | 741 W/m² | - |
| 1777304278 | 18.89° C | 47% | 1025 hPa | 0 mm | - | 739 W/m² | - |
* Rain latest hour (hover to see other rain measurements)
** Current wind speed in m/s (hover to see current wind gust speed)